Welcome to our new website - Welkom op onze vernieuwde website - Bienvenue sur notre nouveau site web - Willkommen auf unserer neuen Website
Check our progress frequently. Prüfen Sie unsere Fortschritte regelmäßig. Consultez notre progression fréquemment. Komt u straks nog eens terug
Extreme hitte van: 26-06-2019 01:00 tot: 23:00 waarschuwing voor: Extreme hitte niveau: Geel info button


Blik over 't Veldj richting Zuid-Westen Meer informatie Blik over 't Veldj richting Zuid-Westen


Onweer radar Meer informatie blitzortung!


Regen radar Meer informatie rain snow radar


Bezoek onze andere website:

Template documentation
and downloads

And another site


Select another period ( hide this area )

Eenheden Periode Custom range Directly to
Metrisch Engels Beide
Dagelijkse Wekelijkse Maandelijkse Jaarlijkse
use both date-selectors for a custom range
previous Dag
With this date

WeatherUnderground graphs for this period ( click here )


Dagelijkse Samenvatting Woensdag 26 juni 2019
Tijd Temp. ( °C ) Dew pt. ( °C ) Wind ( km/h ) van Windvlaag ( km/h ) Luchtdruk ( hPa ) Humid.( % ) Rainrate ( cm )
Hoog27,4 21,4 11,1 Westen ( 65/126 ) 11,3 1020,9 80 -
Gemiddeld25,0 20,3 2,9 Westen #13/44 6,6 1020,4 75 -
Laag23,3 19,3 -   1,6 1019,5 68 -
Dagelijkse Tabular details for Woensdag 26 juni 2019
Tijd Temp. ( °C ) Dew pt. ( °C ) Wind ( km/h ) van Windvlaag ( km/h ) Luchtdruk ( hPa ) Humid.( % ) Rainrate ( cm )
00:00 27,4 21,0 6,4 Westen 9,7 1019,5 68 -
00:05 27,2 21,0   Kalm 4,8 1019,9 69 -
00:10 27,2 21,0   Kalm 6,4 1019,9 69 -
00:15 27,1 21,2   Kalm 6,4 1019,9 70 -
00:20 26,9 21,4 11,1 Westen 11,3 1019,9 72 -
00:25 26,7 21,2 3,2 WZW 9,7 1019,9 72 -
00:30 26,4 20,9 7,9 WNW 11,3 1019,9 72 -
00:35 26,2 21,0 3,2 WNW 6,4 1019,9 73 -
00:40 26,1 20,9   Kalm 4,8 1020,2 73 -
00:45 25,9 20,5 4,7 Westen 11,3 1020,2 72 -
00:50 25,8 20,6 3,2 Westen 8,0 1020,2 73 -
00:55 25,8 20,6 4,7 Westen 4,8 1020,2 73 -
01:00 25,7 20,5 3,2 WNW 9,7 1020,2 73 -
01:05 25,7 20,5 3,2 Westen 4,8 1020,2 73 -
01:10 25,6 20,4   Kalm 4,8 1020,2 73 -
01:15 25,4 20,4 3,2 WNW 6,4 1020,2 74 -
01:20 25,4 20,4   Kalm 4,8 1020,2 74 -
01:25 25,3 20,3   Kalm 1,6 1020,2 74 -
01:30 25,3 20,5 1,4 ZW 3,2 1020,5 75 -
01:35 25,2 20,5 4,7 WZW 9,7 1020,5 75 -
01:40 25,1 20,4 3,2 Westen 3,2 1020,5 75 -
01:45 25,1 20,4 4,7 Westen 6,4 1020,5 75 -
01:50 24,9 20,4 1,4 Westen 9,7 1020,5 76 -
01:55 24,8 20,3 3,2 NNO 6,4 1020,5 76 -
02:00 24,7 20,2 1,4 WZW 6,4 1020,5 76 -
02:05 24,6 20,1 3,2 Westen 6,4 1020,5 76 -
02:10 24,6 20,3 1,4 WZW 3,2 1020,5 77 -
02:15 24,6 20,3   Kalm 3,2 1020,5 77 -
02:20 24,5 20,4 1,4 ZW 8,0 1020,5 78 -
02:25 24,4 20,3   Kalm 6,4 1020,5 78 -
02:30 24,3 20,2 3,2 Westen 6,4 1020,5 78 -
02:35 24,1 19,8 6,4 Westen 6,4 1020,5 77 -
02:40 23,9 19,4 4,7 WZW 11,3 1020,9 76 -
02:45 23,8 19,3 9,7 Westen 9,7 1020,5 76 -
02:50 23,8 19,3   Kalm 4,8 1020,9 76 -
02:55 23,8 19,5 1,4 WZW 8,0 1020,9 77 -
03:00 23,7 19,6 4,7 WZW 8,0 1020,9 78 -
03:05 23,7 19,6 3,2 WZW 3,2 1020,9 78 -
03:10 23,6 19,7 3,2 WZW 6,4 1020,5 79 -
03:15 23,5 19,6 3,2 WZW 8,0 1020,9 79 -
03:20 23,4 19,3   Kalm 4,8 1020,9 78 -
03:25 23,4 19,5 3,2 WZW 4,8 1020,9 79 -
03:30 23,3 19,5   Kalm 4,8 1020,9 79 -
03:35 23,3 19,7 3,2 WNW 6,4 1020,5 80 -
Dagelijkse Samenvatting Woensdag 26 juni 2019
Tijd Temp. ( °C ) Dew pt. ( °C ) Wind ( km/h ) van Windvlaag ( km/h ) Luchtdruk ( hPa ) Humid.( % ) Rainrate ( cm )
Hoog27,4 21,4 11,1 Westen ( 65/126 ) 11,3 1020,9 80 -
Gemiddeld25,0 20,3 2,9 Westen #13/44 6,6 1020,4 75 -
Laag23,3 19,3 -   1,6 1019,5 68 -
Dagelijkse Tabular details for Woensdag 26 juni 2019
Tijd Temp. ( °C ) Dew pt. ( °C ) Wind ( km/h ) van Windvlaag ( km/h ) Luchtdruk ( hPa ) Humid.( % ) Rainrate ( cm )
00:00 27,4 21,0 6,4 Westen 9,7 1019,5 68 -
00:05 27,2 21,0   Kalm 4,8 1019,9 69 -
00:10 27,2 21,0   Kalm 6,4 1019,9 69 -
00:15 27,1 21,2   Kalm 6,4 1019,9 70 -
00:20 26,9 21,4 11,1 Westen 11,3 1019,9 72 -
00:25 26,7 21,2 3,2 WZW 9,7 1019,9 72 -
00:30 26,4 20,9 7,9 WNW 11,3 1019,9 72 -
00:35 26,2 21,0 3,2 WNW 6,4 1019,9 73 -
00:40 26,1 20,9   Kalm 4,8 1020,2 73 -
00:45 25,9 20,5 4,7 Westen 11,3 1020,2 72 -
00:50 25,8 20,6 3,2 Westen 8,0 1020,2 73 -
00:55 25,8 20,6 4,7 Westen 4,8 1020,2 73 -
01:00 25,7 20,5 3,2 WNW 9,7 1020,2 73 -
01:05 25,7 20,5 3,2 Westen 4,8 1020,2 73 -
01:10 25,6 20,4   Kalm 4,8 1020,2 73 -
01:15 25,4 20,4 3,2 WNW 6,4 1020,2 74 -
01:20 25,4 20,4   Kalm 4,8 1020,2 74 -
01:25 25,3 20,3   Kalm 1,6 1020,2 74 -
01:30 25,3 20,5 1,4 ZW 3,2 1020,5 75 -
01:35 25,2 20,5 4,7 WZW 9,7 1020,5 75 -
01:40 25,1 20,4 3,2 Westen 3,2 1020,5 75 -
01:45 25,1 20,4 4,7 Westen 6,4 1020,5 75 -
01:50 24,9 20,4 1,4 Westen 9,7 1020,5 76 -
01:55 24,8 20,3 3,2 NNO 6,4 1020,5 76 -
02:00 24,7 20,2 1,4 WZW 6,4 1020,5 76 -
02:05 24,6 20,1 3,2 Westen 6,4 1020,5 76 -
02:10 24,6 20,3 1,4 WZW 3,2 1020,5 77 -
02:15 24,6 20,3   Kalm 3,2 1020,5 77 -
02:20 24,5 20,4 1,4 ZW 8,0 1020,5 78 -
02:25 24,4 20,3   Kalm 6,4 1020,5 78 -
02:30 24,3 20,2 3,2 Westen 6,4 1020,5 78 -
02:35 24,1 19,8 6,4 Westen 6,4 1020,5 77 -
02:40 23,9 19,4 4,7 WZW 11,3 1020,9 76 -
02:45 23,8 19,3 9,7 Westen 9,7 1020,5 76 -
02:50 23,8 19,3   Kalm 4,8 1020,9 76 -
02:55 23,8 19,5 1,4 WZW 8,0 1020,9 77 -
03:00 23,7 19,6 4,7 WZW 8,0 1020,9 78 -
03:05 23,7 19,6 3,2 WZW 3,2 1020,9 78 -
03:10 23,6 19,7 3,2 WZW 6,4 1020,5 79 -
03:15 23,5 19,6 3,2 WZW 8,0 1020,9 79 -
03:20 23,4 19,3   Kalm 4,8 1020,9 78 -
03:25 23,4 19,5 3,2 WZW 4,8 1020,9 79 -
03:30 23,3 19,5   Kalm 4,8 1020,9 79 -
03:35 23,3 19,7 3,2 WNW 6,4 1020,5 80 -

Download your copy of this data-set  here

Our weather-data as stored at Weather Underground. Script ontwikkeld door Jim McMurry. Aangepast voor de template door Leuven-Template.eu

U vindt ons ook hier:

UK Metoffice

Weather Underground

AWEKAS

Apparatuur in gebruik:

Weerstation
Davis Vantage Vue

Webleverancier
One.com

Davis Vantage Vue

One.com